Temperature
7 7 7 7 7 8 8 8 8 8 8 9 9 9 9 9 9 9 9 8 8 8 8 8 8 8 8 7 7 6 5 4 4 3 3 3 2 2 2 2 1 2 2
6 6 6 7 7 7 7 7 7 7 8 8 8 8 8 8 8 8 8 8 7 7 7 7 7 7 7 6 6 5 4 3 3 2 2 2 2 1 1 1 1 1 1
6 6 6 6 6 6 7 7 7 7 7 7 7 7 7 7 7 7 7 7 7 7 7 7 6 6 5 5 4 3 2 2 2 2 2 1 1 1 0 0 -0 -0 -1
5 5 5 5 6 6 6 6 6 6 6 6 6 6 6 6 6 6 6 6 5 5 5 5 5 4 3 2 2 1 1 1 1 1 1 1 1 -0 -0 -1 -1 -1 -2
4 4 4 4 4 4 5 5 5 5 5 4 4 4 4 5 5 4 4 4 4 4 4 3 2 2 1 1 1 1 0 0 0 0 0 -0 -1 -1 -2 -3 -3 -3 -3
3 3 3 3 3 3 3 3 4 3 3 3 3 3 3 3 3 3 3 2 2 2 1 1 1 0 -0 -0 -0 -0 -0 -1 -1 -1 -1 -2 -2 -3 -4 -4 -4 -4 -4
2 2 2 2 2 2 2 2 2 2 2 2 2 1 1 1 1 1 1 1 1 0 -0 -0 -1 -1 -1 -1 -1 -1 -1 -2 -2 -2 -3 -3 -4 -4 -5 -5 -5 -5 -5
1 2 2 2 2 1 1 1 1 1 1 1 0 0 0 -0 -0 -0 -0 -0 -0 -1 -1 -1 -1 -1 -2 -2 -2 -2 -3 -3 -3 -4 -4 -4 -5 -5 -6 -6 -6 -6 -5
1 1 1 1 1 1 1 1 0 0 0 -0 -0 -0 -0 -1 -1 -1 -1 -1 -1 -1 -2 -2 -2 -2 -3 -3 -3 -4 -4 -4 -5 -5 -5 -5 -6 -6 -6 -6 -6 -7 -6
1 1 1 1 1 1 0 0 -0 -0 -1 -1 -1 -1 -1 -1 -1 -1 -2 -2 -2 -2 -2 -3 -3 -3 -4 -4 -4 -5 -5 -6 -6 -6 -6 -6 -6 -6 -6 -7 -7 -7 -7
1 1 1 1 1 0 0 -0 -0 -1 -1 -1 -1 -1 -1 -2 -2 -2 -2 -3 -3 -3 -4 -4 -4 -4 -5 -5 -5 -6 -6 -6 -6 -6 -6 -6 -7 -7 -7 -7 -7 -7 -7
1 1 1 1 1 0 0 -0 -1 -1 -1 -1 -2 -2 -2 -2 -3 -3 -3 -4 -4 -5 -5 -5 -5 -6 -6 -6 -6 -6 -7 -7 -6 -6 -7 -7 -7 -7 -7 -7 -7 -7 -7
1 1 1 1 1 0 -0 -0 -1 -1 -2 -2 -2 -2 -3 -3 -3 -4 -4 -5 -5 -5 -6 -6 -6 -6 -6 -6 -6 -7 -7 -7 -7 -7 -7 -7 -7 -7 -7 -7 -7 -7 -7
1 1 1 1 1 0 -0 -0 -1 -1 -1 -2 -2 -3 -3 -4 -4 -4 -5 -5 -6 -6 -6 -6 -6 -6 -7 -7 -7 -7 -7 -7 -7 -7 -7 -7 -7 -7 -7 -7 -7 -7 -7
1 1 1 1 0 0 -0 -0 -1 -1 -2 -2 -2 -3 -3 -4 -4 -5 -6 -6 -6 -6 -7 -7 -7 -7 -7 -8 -8 -8 -8 -8 -8 -8 -8 -8 -7 -7 -7 -7 -7 -7 -7
1 1 1 1 0 0 -0 -1 -1 -1 -2 -2 -3 -3 -4 -4 -5 -5 -6 -6 -6 -7 -7 -7 -8 -8 -8 -8 -8 -8 -8 -8 -8 -8 -8 -8 -8 -8 -8 -7 -8 -8 -8
1 1 1 0 0 -0 -0 -1 -1 -1 -2 -2 -3 -4 -4 -5 -5 -6 -6 -7 -7 -7 -8 -8 -8 -8 -8 -8 -8 -8 -8 -8 -8 -8 -8 -8 -8 -8 -8 -8 -8 -8 -8
1 1 1 0 -0 -0 -1 -1 -2 -2 -2 -3 -3 -4 -5 -5 -6 -6 -7 -7 -7 -8 -8 -8 -8 -8 -8 -8 -8 -8 -8 -8 -8 -8 -8 -8 -8 -9 -9 -8 -8 -9 -9
1 1 0 0 -0 -1 -1 -2 -2 -2 -3 -3 -4 -5 -5 -6 -6 -7 -7 -8 -8 -8 -8 -8 -8 -8 -8 -8 -9 -9 -8 -8 -8 -8 -8 -8 -9 -9 -9 -9 -9 -9 -9
1 0 0 -0 -1 -1 -1 -2 -2 -2 -3 -4 -4 -5 -6 -6 -7 -7 -8 -8 -8 -8 -8 -8 -8 -8 -8 -8 -9 -9 -8 -8 -8 -8 -9 -9 -9 -9 -9 -9 -9 -9 -9
0 -0 -0 -1 -1 -1 -2 -2 -2 -3 -3 -4 -4 -5 -6 -6 -7 -7 -8 -8 -8 -8 -8 -8 -8 -8 -8 -8 -9 -8 -8 -8 -8 -9 -9 -9 -9 -9 -9 -9 -9 -9 -9
-0 -0 -1 -1 -1 -1 -2 -2 -3 -3 -3 -4 -5 -5 -6 -6 -7 -7 -7 -8 -8 -8 -8 -8 -8 -8 -8 -8 -9 -9 -8 -8 -8 -9 -9 -9 -9 -9 -9 -9 -9 -9 -9
-1 -1 -1 -1 -2 -2 -2 -2 -3 -3 -4 -4 -5 -5 -6 -6 -7 -7 -7 -8 -8 -8 -8 -8 -8 -8 -8 -8 -8 -9 -9 -9 -9 -9 -9 -9 -9 -9 -9 -9 -9 -9 -9
-1 -1 -1 -2 -2 -2 -2 -3 -3 -3 -4 -4 -5 -5 -6 -6 -7 -7 -7 -7 -7 -7 -8 -8 -8 -8 -8 -8 -8 -8 -9 -9 -9 -9 -9 -9 -9 -9 -9 -9 -9 -9 -9
-2 -2 -2 -2 -2 -2 -3 -3 -3 -4 -4 -4 -5 -5 -6 -6 -6 -7 -7 -7 -7 -7 -7 -8 -8 -8 -8 -8 -8 -8 -9 -9 -9 -9 -9 -9 -9 -9 -9 -9 -9 -9 -9
-2 -2 -2 -2 -2 -3 -3 -3 -3 -4 -4 -5 -5 -5 -6 -6 -6 -7 -7 -7 -7 -7 -7 -7 -8 -8 -8 -8 -8 -8 -9 -9 -9 -9 -9 -9 -9 -9 -9 -9 -9 -9 -9
Wind_Speed
8 7 7 7 8 8 7 8 8 8 8 7 7 5 4 3 2 0 1 2 3 2 2 3 3 4 4 3 3 3 3 4 4 3 2 2 3 4 5 5 7 10 11
7 7 8 8 9 9 9 9 9 9 9 9 9 8 7 6 5 4 3 3 3 3 4 5 5 5 6 5 4 4 4 3 4 4 3 4 4 4 4 4 8 10 11
7 7 8 9 9 9 9 9 9 9 10 10 10 10 9 8 8 7 6 6 6 5 5 6 7 8 7 5 6 5 4 4 3 4 4 2 2 3 4 5 7 7 11
7 7 8 8 8 8 8 9 9 9 10 10 10 10 9 9 9 8 8 9 8 8 7 7 7 7 7 7 6 6 5 4 4 5 3 2 2 3 3 4 4 4 5
6 7 7 7 7 8 8 8 9 10 10 9 9 9 9 8 8 9 9 9 9 9 9 8 8 8 8 6 5 5 4 3 3 3 2 2 2 2 3 3 3 3 4
6 6 6 7 7 7 8 8 9 10 10 10 10 10 10 9 12 14 11 9 9 9 9 9 8 7 8 8 8 6 4 2 2 2 2 2 2 3 2 1 1 1 3
6 6 6 7 7 8 8 9 9 9 9 10 10 10 10 12 15 15 15 10 9 8 8 7 6 6 7 4 5 4 1 0 1 1 1 2 2 1 1 1 2 4 5
6 6 6 6 7 7 8 9 9 8 9 9 9 9 9 11 15 15 15 10 9 8 7 6 5 5 4 3 3 2 1 2 2 1 2 2 2 2 3 3 4 4 5
6 6 6 6 6 7 7 7 7 7 8 8 7 8 8 9 13 13 11 6 6 6 5 5 4 3 3 3 2 2 3 3 4 4 5 7 9 10 9 3 3 3 5
5 5 5 6 6 6 6 6 6 6 6 6 6 6 6 6 9 10 8 4 4 3 2 2 3 3 3 3 2 2 3 3 3 4 5 7 7 9 11 5 4 4 4
4 5 5 5 5 5 5 4 5 5 5 4 4 4 4 5 7 8 8 4 3 2 2 1 1 2 4 6 5 3 5 4 3 4 5 5 5 4 5 5 4 5 5
4 4 4 4 4 4 4 3 2 3 3 3 3 3 2 3 4 5 7 6 5 3 2 2 2 4 6 7 6 6 8 7 3 4 4 4 4 4 3 3 6 7 9
5 4 4 4 3 3 3 2 1 1 2 1 2 2 2 2 2 4 4 5 5 3 2 4 5 7 7 6 7 8 7 3 3 4 4 4 4 4 3 4 6 9 12
6 5 4 4 3 2 2 2 2 3 2 2 2 2 1 1 1 2 3 4 5 4 3 5 7 8 7 7 7 5 3 4 4 3 4 4 4 4 4 4 5 5 7
6 5 4 4 4 3 4 4 4 4 4 3 2 2 2 2 2 4 4 3 3 4 5 3 4 3 3 3 3 4 3 3 4 3 4 5 6 5 6 5 5 6 8
6 5 4 3 3 4 4 3 4 3 4 4 3 2 2 3 5 6 7 8 9 9 6 4 4 4 3 3 4 4 4 4 4 4 4 5 7 8 8 7 7 8 9
6 6 4 4 3 3 3 3 2 1 2 1 0 1 3 4 6 7 8 9 10 9 4 4 4 4 4 4 4 4 4 5 4 5 6 6 7 8 8 9 9 9 10
7 7 6 4 4 3 3 2 2 1 1 2 3 3 3 5 7 8 8 7 6 5 3 4 4 4 4 4 5 5 5 5 5 6 7 7 7 8 9 9 9 10 11
7 5 5 4 4 3 3 2 1 1 1 2 2 3 4 5 8 8 7 3 4 5 4 4 4 5 5 5 5 5 6 6 7 7 7 8 8 8 9 10 10 14 13
6 8 7 5 4 4 3 3 2 2 2 2 3 2 1 2 3 4 3 3 4 5 5 5 5 5 5 5 6 6 6 7 8 8 8 8 8 9 10 11 11 11 11
6 7 9 5 4 4 4 3 3 3 3 3 3 3 4 3 4 5 4 4 4 5 5 5 5 6 6 6 6 7 8 8 8 8 9 9 9 10 10 10 11 12 12
7 6 5 5 4 4 4 3 3 3 3 3 3 4 7 4 4 5 5 5 5 5 5 5 6 6 6 6 7 7 8 9 9 9 9 9 9 10 11 11 11 12 12
7 7 6 5 4 6 5 4 4 4 4 4 4 4 4 4 4 5 5 5 5 5 6 6 6 7 8 11 11 8 9 10 10 10 10 10 10 10 11 12 14 15 14
7 7 7 6 5 5 5 5 5 4 4 4 4 4 4 5 5 6 6 5 6 5 8 8 8 9 12 13 14 14 16 17 16 13 13 13 13 12 13 13 15 16 16
7 7 7 6 6 6 5 5 5 5 5 5 5 4 4 5 5 6 6 6 7 7 8 10 11 12 14 16 17 17 20 23 23 19 16 12 14 15 15 16 16 17 17
7 7 6 6 6 6 6 6 5 5 5 5 5 5 5 5 6 6 6 6 6 7 7 9 12 15 17 17 19 21 23 24 24 25 20 13 14 15 15 15 18 17 18
Wind_Direction
354 347 348 353 356 0 5 2 360 1 2 360 357 2 9 10 17 39 203 174 190 181 151 160 150 129 130 125 130 142 145 147 154 144 135 137 160 171 184 212 241 252 258
356 357 5 10 11 13 13 9 10 13 15 17 19 25 28 30 37 51 64 81 111 125 119 118 118 116 112 112 117 119 121 121 141 154 158 165 181 186 195 223 243 250 252
3 13 20 19 18 17 16 16 20 24 26 28 32 33 34 37 44 53 65 70 74 84 100 113 118 119 115 112 111 112 108 98 104 137 144 147 165 186 203 229 240 248 257
19 28 27 24 22 21 22 28 33 35 37 38 41 42 42 45 51 60 71 76 78 78 84 95 103 113 120 119 114 111 107 100 103 117 126 143 171 188 198 224 245 242 256
30 35 32 32 31 30 33 37 41 44 45 44 47 48 47 51 58 68 73 81 83 82 78 79 86 102 116 114 117 116 115 115 120 129 143 157 182 193 212 214 234 262 276
38 41 38 41 41 40 41 44 49 49 49 51 52 53 53 60 72 77 80 77 80 82 81 75 78 81 94 98 109 113 116 127 143 150 163 185 208 218 209 198 217 295 292
45 46 46 49 51 49 52 53 52 51 53 55 55 58 62 67 74 78 79 78 75 73 73 72 72 67 63 61 81 88 79 37 198 169 201 233 244 227 196 246 249 247 253
52 50 51 56 59 58 59 59 57 58 59 59 59 60 64 67 73 77 79 74 74 70 69 71 76 73 65 53 46 48 323 278 256 236 215 251 263 246 218 229 243 266 271
63 55 53 61 67 67 65 62 61 66 65 63 62 62 63 63 70 75 77 72 75 71 67 64 64 64 54 32 21 328 307 301 292 279 272 276 279 279 274 265 273 287 291
73 70 67 69 75 75 72 70 71 74 76 76 71 68 68 63 67 67 71 72 74 74 71 69 60 39 7 357 3 340 322 324 348 337 314 301 292 285 282 253 211 228 257
99 94 87 83 86 87 82 79 86 88 85 81 80 75 74 69 59 53 51 50 44 43 29 25 50 12 348 336 335 334 311 319 326 310 299 293 291 278 270 255 220 206 225
126 116 108 102 99 97 94 94 109 120 112 108 97 77 59 61 63 49 42 36 27 24 15 28 11 343 331 326 322 312 312 320 319 301 295 291 290 286 281 277 274 264 251
149 138 132 126 122 126 122 111 105 105 107 107 102 96 60 49 52 40 23 12 7 9 352 343 330 322 323 324 315 313 320 320 304 296 292 287 279 273 275 280 277 272 266
161 154 148 141 135 121 97 58 51 40 41 59 70 70 26 5 38 22 359 350 353 352 348 329 321 310 303 297 298 301 285 262 277 274 281 283 287 288 281 273 275 281 282
160 157 154 150 140 113 83 60 75 68 67 73 71 56 39 2 350 351 347 344 342 318 332 329 310 300 298 297 293 288 282 284 290 276 278 289 297 296 293 295 286 287 281
164 167 169 163 154 148 139 103 75 107 80 69 64 42 2 338 333 335 332 328 324 320 328 317 306 309 310 312 313 310 308 301 290 283 285 290 294 295 296 295 289 285 283
172 173 169 167 168 167 159 159 177 188 187 185 207 336 329 326 325 322 321 321 317 312 304 293 296 300 296 293 289 287 287 287 286 282 281 281 283 286 288 288 287 284 282
169 172 169 171 169 167 166 161 161 181 245 258 231 244 284 307 310 308 310 319 316 312 277 276 280 284 285 283 281 281 282 287 286 283 281 279 279 280 281 280 279 278 282
167 169 170 160 155 154 152 154 179 212 249 270 273 263 261 296 305 300 297 280 283 292 291 285 278 278 277 276 275 275 275 277 277 277 278 276 274 273 274 274 276 279 281
173 172 165 159 158 161 169 185 205 224 244 260 269 262 273 303 296 295 282 262 266 274 277 277 276 275 272 271 271 272 274 274 275 273 274 274 272 270 272 274 275 277 277
167 171 171 162 170 175 181 195 206 216 236 249 257 265 276 268 277 280 278 271 266 268 269 270 271 272 270 270 269 269 271 274 272 272 273 273 272 272 272 273 274 275 276
166 167 170 176 175 178 186 193 200 217 238 252 257 273 285 272 266 270 269 269 267 265 262 263 266 264 262 264 267 270 272 274 273 272 272 272 273 274 275 275 275 276 276
165 166 171 176 176 194 198 196 205 218 232 242 250 255 261 257 260 265 266 267 268 269 270 266 268 272 271 269 265 262 268 272 272 271 274 277 276 276 276 276 275 276 276
170 172 176 179 181 187 195 203 209 218 228 237 243 250 254 257 263 271 271 271 271 269 272 271 270 271 273 278 276 271 268 270 271 269 264 266 269 272 272 272 273 273 274
176 178 181 183 187 194 200 205 211 220 230 239 242 249 255 261 265 269 271 271 274 274 276 278 277 277 276 276 278 279 280 282 282 279 272 266 266 265 268 270 272 275 275
180 182 185 185 188 194 201 209 215 220 228 237 242 247 254 259 264 268 272 274 276 277 279 283 280 280 281 284 285 286 289 291 291 291 288 280 275 274 273 275 275 275 278
Height
1478 1477 1476 1474 1473 1472 1471 1470 1469 1468 1467 1467 1466 1466 1466 1466 1466 1466 1466 1467 1467 1467 1468 1469 1469 1470 1470 1470 1471 1472 1473 1475 1476 1476 1479 1481 1483 1485 1486 1488 1490 1490 1490
1476 1474 1473 1472 1471 1469 1468 1467 1466 1464 1463 1463 1462 1462 1461 1461 1461 1461 1461 1461 1462 1462 1462 1463 1463 1463 1463 1464 1465 1466 1467 1469 1471 1473 1474 1476 1478 1480 1481 1482 1483 1483 1483
1473 1472 1471 1469 1468 1467 1466 1464 1463 1462 1460 1460 1459 1458 1457 1457 1456 1456 1456 1456 1456 1457 1456 1457 1457 1458 1458 1459 1460 1462 1464 1465 1467 1469 1470 1472 1474 1475 1476 1476 1476 1476 1476
1471 1470 1469 1467 1466 1465 1463 1462 1460 1459 1458 1457 1456 1455 1454 1453 1453 1452 1452 1452 1452 1452 1452 1452 1453 1454 1455 1456 1458 1459 1461 1463 1464 1465 1467 1468 1469 1469 1470 1470 1470 1470 1470
1469 1468 1467 1465 1464 1463 1461 1460 1458 1457 1456 1455 1454 1453 1452 1452 1451 1450 1449 1449 1449 1448 1449 1449 1450 1452 1453 1455 1457 1458 1460 1461 1462 1462 1463 1463 1464 1464 1464 1464 1464 1464 1463
1468 1467 1466 1464 1463 1462 1460 1459 1458 1456 1456 1455 1454 1453 1452 1451 1450 1449 1448 1448 1447 1448 1448 1449 1451 1452 1454 1455 1456 1457 1459 1459 1459 1459 1459 1459 1460 1460 1460 1460 1459 1459 1457
1467 1466 1465 1464 1463 1461 1460 1459 1458 1457 1457 1456 1455 1454 1453 1452 1451 1450 1449 1449 1449 1449 1450 1451 1452 1453 1454 1455 1455 1456 1456 1457 1457 1457 1456 1456 1456 1456 1456 1455 1455 1454 1452
1467 1466 1465 1464 1463 1462 1461 1460 1459 1459 1458 1458 1457 1457 1456 1455 1454 1453 1452 1452 1451 1452 1452 1453 1453 1453 1454 1454 1454 1454 1454 1454 1453 1453 1453 1452 1452 1452 1452 1451 1450 1448 1447
1467 1466 1466 1465 1464 1463 1463 1462 1462 1461 1461 1460 1460 1459 1458 1457 1456 1455 1455 1454 1453 1453 1453 1453 1453 1453 1453 1452 1452 1452 1451 1451 1450 1450 1449 1449 1448 1448 1447 1447 1445 1444 1442
1468 1467 1467 1466 1466 1465 1465 1464 1464 1464 1463 1462 1462 1461 1460 1459 1458 1457 1456 1455 1455 1454 1454 1453 1452 1452 1451 1451 1450 1449 1448 1447 1447 1446 1446 1445 1445 1444 1443 1443 1442 1441 1439
1469 1469 1468 1468 1468 1467 1467 1466 1466 1465 1465 1464 1463 1462 1462 1461 1460 1458 1457 1456 1455 1454 1453 1452 1451 1450 1449 1448 1447 1446 1446 1445 1444 1443 1442 1442 1441 1440 1440 1439 1438 1437 1435
1470 1470 1470 1469 1469 1469 1469 1468 1467 1467 1466 1465 1464 1463 1462 1461 1460 1458 1457 1456 1454 1453 1452 1451 1449 1448 1447 1446 1445 1444 1443 1442 1441 1440 1439 1438 1438 1437 1436 1435 1434 1433 1431
1470 1470 1470 1470 1470 1470 1469 1469 1468 1468 1467 1466 1465 1463 1462 1461 1459 1458 1456 1455 1453 1452 1450 1449 1448 1446 1445 1444 1443 1442 1441 1439 1438 1437 1436 1435 1434 1433 1432 1431 1429 1427 1425
1470 1470 1470 1470 1470 1470 1470 1469 1468 1467 1466 1465 1464 1463 1461 1460 1458 1457 1455 1453 1452 1450 1448 1447 1446 1444 1443 1442 1440 1439 1438 1437 1435 1434 1433 1432 1431 1429 1428 1426 1423 1421 1418
1469 1469 1470 1470 1470 1469 1469 1469 1468 1467 1466 1465 1464 1462 1460 1458 1457 1455 1453 1451 1449 1448 1446 1444 1443 1442 1440 1439 1438 1436 1435 1434 1433 1431 1430 1428 1426 1424 1423 1421 1418 1415 1412
1467 1468 1468 1468 1468 1468 1468 1467 1466 1466 1465 1464 1462 1461 1458 1457 1455 1453 1451 1449 1447 1445 1444 1442 1440 1439 1438 1436 1435 1434 1432 1431 1429 1428 1426 1424 1421 1419 1417 1415 1413 1410 1406
1465 1466 1466 1466 1466 1466 1466 1465 1465 1464 1463 1462 1460 1458 1456 1454 1452 1450 1448 1446 1444 1443 1441 1439 1438 1436 1435 1433 1432 1430 1429 1427 1426 1423 1421 1419 1417 1414 1412 1409 1406 1404 1400
1462 1463 1463 1464 1464 1464 1464 1463 1462 1461 1460 1458 1457 1455 1453 1451 1449 1447 1445 1443 1441 1440 1438 1436 1435 1433 1432 1430 1428 1427 1425 1423 1421 1419 1417 1414 1412 1409 1406 1403 1401 1398 1394
1458 1460 1460 1461 1462 1462 1461 1461 1460 1459 1458 1456 1454 1452 1450 1448 1446 1444 1442 1440 1438 1436 1435 1433 1432 1430 1428 1426 1425 1423 1421 1419 1416 1414 1412 1409 1407 1404 1400 1397 1394 1391 1388
1454 1456 1457 1458 1458 1459 1458 1458 1457 1456 1454 1453 1451 1449 1447 1445 1443 1441 1439 1437 1435 1433 1432 1430 1428 1426 1424 1422 1420 1418 1416 1414 1411 1409 1406 1403 1401 1398 1394 1391 1388 1384 1381
1450 1452 1453 1454 1455 1455 1455 1454 1454 1452 1451 1449 1448 1446 1444 1442 1440 1438 1436 1434 1432 1430 1428 1426 1424 1422 1420 1418 1416 1413 1411 1408 1406 1403 1400 1397 1394 1391 1388 1384 1381 1377 1373
1445 1447 1449 1450 1451 1451 1451 1451 1450 1449 1447 1446 1444 1443 1441 1439 1437 1434 1432 1430 1429 1427 1424 1422 1420 1418 1416 1413 1411 1408 1405 1402 1399 1397 1393 1390 1387 1384 1381 1377 1373 1370 1366
1440 1442 1444 1445 1446 1447 1447 1447 1446 1445 1444 1442 1440 1439 1437 1435 1433 1431 1429 1427 1425 1423 1420 1418 1415 1413 1411 1408 1405 1402 1399 1396 1393 1390 1387 1383 1380 1377 1373 1369 1365 1361 1357
1435 1437 1439 1441 1442 1443 1443 1443 1442 1441 1440 1438 1437 1435 1433 1431 1429 1427 1425 1423 1421 1418 1416 1413 1411 1408 1405 1403 1400 1397 1394 1390 1387 1383 1380 1376 1372 1369 1365 1361 1357 1353 1349
1430 1432 1434 1436 1438 1438 1439 1438 1438 1437 1436 1434 1433 1431 1429 1427 1425 1423 1421 1419 1416 1414 1411 1409 1406 1403 1400 1397 1394 1391 1387 1384 1381 1377 1373 1369 1365 1361 1357 1353 1348 1344 1340
1425 1428 1430 1432 1433 1434 1434 1434 1434 1433 1432 1430 1429 1427 1425 1423 1421 1419 1417 1415 1412 1409 1407 1404 1401 1398 1394 1391 1388 1384 1381 1377 1374 1371 1368 1363 1358 1354 1350 1345 1340 1335 1330